Regional Weather Roundup
Issued by NWS

Home | Current Version | Previous Version | Text Only | Print | Product List | Glossary On
Versions: 1 2 3 4 5 6 7 8 9 10 11 12 13 14 15 16 17 18 19 20 21 22 23 24 25 26 27 28 29 30 31 32 33 34 35 36 37 38 39 40 41 42 43 44 45 46 47 48 49 50
000
ASCA42 TJSJ 261611
RWRPR
PUERTO RICO/U.S. VIRGIN ISLANDS HOURLY WEATHER ROUNDUP
NATIONAL WEATHER SERVICE SAN JUAN PR
1200 PM AST MON JAN 26 2015

PRZ001-004-261700-
PUERTO RICO

CITY           SKY/WX    TMP DP  RH WIND       PRES   REMARKS
SAN JUAN LMM   MOSUNNY   84  68  58 E16       30.01F
PONCE          MOSUNNY   86  72  62 E12       30.00  HX  92
AGUADILLA      MOSUNNY   82  66  57 E6        30.02F
CEIBA          PTSUNNY   81  70  69 E13       30.06F
$$

PRZ006-007-261700-
U.S. VIRGIN ISLANDS

CITY           SKY/WX    TMP DP  RH WIND       PRES   REMARKS
CHARLOTTE AMA  MOSUNNY   82  70  65 SE15      30.03
CHRISTIANSTED  PTSUNNY   84  70  61 E17       30.03
$$

HOURLY WEATHER ROUNDUP FOR THE NEWS MEDIA

CITY           SKY/WX    TMP DP  RH WIND       PRES   REMARKS
MIAMI          RAIN      66  59  78 W16G36    29.97R
ORLANDO        SUNNY     62  45  53 NW20G32   29.90S
NEW YORK       LGT SNOW  26  19  74 NE18G28   29.99F WCI  13
NEWARK         LGT SNOW  24  19  81 NE18      29.99S WCI  10
CHICAGO        CLOUDY    23  15  71 SW3       29.94F
HARTFORD       CLOUDY    24  15  68 N7        30.07S WCI  16
BOSTON         FLURRIES  20  13  74 N16       30.13F WCI   6
DALLAS         MOSUNNY   49  31  49 W3        30.23R
PHILADELPHIA   LGT SNOW  30  25  81 NE17G25   29.87F WCI  18


USA.gov is the U.S. government's official web portal to all federal, state and local government web resources and services.